TimeCDT,TemperatureF,Dew PointF,Humidity,Sea Level PressureIn,VisibilityMPH,Wind Direction,Wind SpeedMPH,Gust SpeedMPH,PrecipitationIn,Events,Conditions,WindDirDegrees,DateUTC
12:02 AM,60.8,59.0,94,30.16,2.0,Calm,Calm,-,N/A,,Clear,0,2013-09-05 05:02:00
12:10 AM,57.2,57.2,100,30.16,7.0,Calm,Calm,-,N/A,,Clear,0,2013-09-05 05:10:00
12:46 AM,57.2,55.4,94,30.16,1.8,Calm,Calm,-,N/A,,Clear,0,2013-09-05 05:46:00
12:52 AM,57.0,55.9,96,30.15,0.5,Calm,Calm,-,N/A,Fog,Fog,0,2013-09-05 05:52:00
1:01 AM,57.2,57.2,100,30.15,0.2,Calm,Calm,-,N/A,Fog,Fog,0,2013-09-05 06:01:00
1:33 AM,57.2,57.2,100,30.15,0.5,Calm,Calm,-,N/A,Fog,Fog,0,2013-09-05 06:33:00
1:52 AM,57.0,55.9,96,30.14,0.2,Calm,Calm,-,N/A,Fog,Fog,0,2013-09-05 06:52:00
2:13 AM,55.4,55.4,100,30.15,0.2,Calm,Calm,-,N/A,Fog,Fog,0,2013-09-05 07:13:00
2:52 AM,55.0,55.0,100,30.14,0.2,Calm,Calm,-,N/A,Fog,Fog,0,2013-09-05 07:52:00
3:10 AM,55.4,55.4,100,30.15,0.2,Calm,Calm,-,N/A,Fog,Fog,0,2013-09-05 08:10:00
3:17 AM,55.4,55.4,100,30.15,0.2,Calm,Calm,-,N/A,Fog,Fog,0,2013-09-05 08:17:00
3:30 AM,55.4,55.4,100,30.15,0.8,Calm,Calm,-,N/A,,Mist,0,2013-09-05 08:30:00
3:33 AM,55.4,55.4,100,30.15,1.2,Calm,Calm,-,N/A,,Partly Cloudy,0,2013-09-05 08:33:00
3:45 AM,55.4,53.6,94,30.15,0.8,Calm,Calm,-,0.01,,Mist,0,2013-09-05 08:45:00
3:52 AM,54.0,54.0,100,30.14,0.5,Calm,Calm,-,0.01,Fog,Fog,0,2013-09-05 08:52:00
4:13 AM,55.4,55.4,100,30.15,0.2,Calm,Calm,-,N/A,Fog,Fog,0,2013-09-05 09:13:00
4:22 AM,55.4,53.6,94,30.15,1.0,Calm,Calm,-,N/A,,Clear,0,2013-09-05 09:22:00
4:25 AM,55.4,53.6,94,30.15,3.0,Calm,Calm,-,N/A,,Clear,0,2013-09-05 09:25:00
4:33 AM,53.6,53.6,100,30.15,1.8,Calm,Calm,-,N/A,,Clear,0,2013-09-05 09:33:00
4:38 AM,53.6,51.8,94,30.15,0.8,Calm,Calm,-,N/A,,Mist,0,2013-09-05 09:38:00
4:52 AM,55.9,55.0,97,30.15,1.0,Calm,Calm,-,N/A,,Mist,0,2013-09-05 09:52:00
5:02 AM,55.4,55.4,100,30.16,0.8,Calm,Calm,-,N/A,,Mist,0,2013-09-05 10:02:00
5:08 AM,53.6,53.6,100,30.16,1.0,Calm,Calm,-,N/A,,Clear,0,2013-09-05 10:08:00
5:11 AM,53.6,53.6,100,30.16,3.0,Calm,Calm,-,N/A,,Clear,0,2013-09-05 10:11:00
5:35 AM,53.6,53.6,100,30.16,1.8,Calm,Calm,-,N/A,,Clear,0,2013-09-05 10:35:00
5:45 AM,53.6,53.6,100,30.17,0.2,Calm,Calm,-,N/A,Fog,Fog,0,2013-09-05 10:45:00
5:52 AM,54.0,53.1,97,30.17,0.2,Calm,Calm,-,N/A,Fog,Fog,0,2013-09-05 10:52:00
6:03 AM,53.6,53.6,100,30.17,0.2,Calm,Calm,-,N/A,Fog,Fog,0,2013-09-05 11:03:00
6:34 AM,53.6,53.6,100,30.19,0.2,Calm,Calm,-,N/A,Fog,Fog,0,2013-09-05 11:34:00
6:42 AM,53.6,53.6,100,30.19,0.2,Calm,Calm,-,N/A,Fog,Fog,0,2013-09-05 11:42:00
6:52 AM,54.0,53.1,97,30.19,0.2,Calm,Calm,-,N/A,Fog,Fog,0,2013-09-05 11:52:00
7:06 AM,53.6,53.6,100,30.19,1.2,Calm,Calm,-,N/A,,Scattered Clouds,0,2013-09-05 12:06:00
7:08 AM,53.6,53.6,100,30.20,4.0,Calm,Calm,-,N/A,,Partly Cloudy,0,2013-09-05 12:08:00
7:52 AM,59.0,59.0,100,30.19,3.0,Calm,Calm,-,N/A,,Scattered Clouds,0,2013-09-05 12:52:00
7:58 AM,60.8,60.8,100,30.20,5.0,Calm,Calm,-,N/A,,Scattered Clouds,0,2013-09-05 12:58:00
8:52 AM,66.9,63.0,87,30.20,10.0,Calm,Calm,-,N/A,,Scattered Clouds,0,2013-09-05 13:52:00
9:52 AM,73.0,63.0,71,30.20,10.0,Calm,Calm,-,N/A,,Partly Cloudy,0,2013-09-05 14:52:00
10:52 AM,78.1,61.0,56,30.21,10.0,Calm,Calm,-,N/A,,Partly Cloudy,0,2013-09-05 15:52:00
11:52 AM,80.1,60.1,50,30.20,10.0,Variable,3.5,-,N/A,,Scattered Clouds,0,2013-09-05 16:52:00
12:52 PM,82.0,61.0,49,30.19,10.0,ENE,6.9,-,N/A,,Scattered Clouds,60,2013-09-05 17:52:00
1:52 PM,82.9,60.1,46,30.17,10.0,Variable,4.6,-,N/A,,Scattered Clouds,0,2013-09-05 18:52:00
2:52 PM,82.9,63.0,51,30.16,10.0,SSE,4.6,-,N/A,,Scattered Clouds,150,2013-09-05 19:52:00
3:52 PM,84.0,62.1,47,30.15,10.0,Calm,Calm,-,N/A,,Scattered Clouds,0,2013-09-05 20:52:00
4:52 PM,84.0,63.0,49,30.14,10.0,Calm,Calm,-,N/A,,Clear,0,2013-09-05 21:52:00
5:52 PM,81.0,62.1,52,30.14,10.0,ENE,3.5,-,N/A,,Clear,70,2013-09-05 22:52:00
6:52 PM,73.0,64.0,73,30.13,10.0,NE,3.5,-,N/A,,Clear,50,2013-09-05 23:52:00
7:52 PM,70.0,63.0,78,30.14,10.0,Calm,Calm,-,N/A,,Clear,0,2013-09-06 00:52:00
8:52 PM,66.0,62.1,87,30.15,10.0,South,3.5,-,N/A,,Clear,190,2013-09-06 01:52:00
9:52 PM,64.9,63.0,93,30.16,10.0,Calm,Calm,-,N/A,,Clear,0,2013-09-06 02:52:00
10:52 PM,64.0,61.0,90,30.17,7.0,Calm,Calm,-,N/A,,Clear,0,2013-09-06 03:52:00
11:52 PM,63.0,61.0,93,30.17,4.0,Calm,Calm,-,N/A,,Clear,0,2013-09-06 04:52:00